Tracking 19832 objects as of 26-Aug-2019
HD Live streaming from Space Station
objects crossing your sky now

ARIANE 5 DEB (SYLDA)

Track ARIANE 5 DEB (SYLDA) now!
10-day predictions


NORAD ID: 39081
Int'l Code: 2013-006D
Perigee: 277.9 km
Apogee: 24,580.7 km
Inclination: 6.2 °
Period: 427.6 minutes
Semi major axis: 18800 km
RCS: 0.003 m2 (small)
Launch date: February 7, 2013
Source: France (FR)
Launch site: FRENCH GUIANA (FRGUI)

Note: This is SATELLITE DEBRIS
aabbcc
Your satellite tracking list
Your tracking list is empty




NASA's NSSDC Master Catalog

Two Line Element Set (TLE):
1 39081U 13006D   19236.80190597  .00006011  00000-0  13910-2 0  9995
2 39081   6.1801  48.0168 6463425 270.0606  21.5059  3.36787753 68664
Source of the keplerian elements: AFSPC